Lancaster, PA

3:09 PM EDT on May 22, 2017 (GMT -0400)
Lancaster

Weather History for KLNS - December, 2004

Change the Weather History Date:

Thursday, December 30, 2004

  Actual Average Record
Temperature  
Mean Temperature 38 °F -  
Max Temperature 44 °F 38 °F 73 °F (1984)
Min Temperature 33 °F 24 °F 5 °F (1976)
Degree Days  
Heating Degree Days 26    
Moisture  
Dew Point 32 °F    
Average Humidity 79    
Maximum Humidity 92    
Minimum Humidity 68    
Precipitation  
Precipitation 0.00 in - - ()
Sea Level Pressure  
Sea Level Pressure 30.44 in    
Wind  
Wind Speed 2 mph (East)    
Max Wind Speed 9 mph    
Max Gust Speed -    
Visibility 5 miles    
Events      
Averages and records for this station are not official NWS values.
T = Trace of Precipitation, MM = Missing Value Source: NWS Daily Summary

Daily Weather History Graph

Daily Weather History Graph

Search for Another Location

Airport or City:

Trip Planner

Search our weather history database for the weather conditions in past years. The results will help you decide how hot, cold, wet, or windy it might be!

Date:

Astronomy

Dec. 30, 2004 Rise Set
Actual Time 7:27 AM EST 4:48 PM EST
Civil Twilight 6:56 AM EST 5:19 PM EST
Nautical Twilight 6:22 AM EST 5:53 PM EST
Astronomical Twilight 5:49 AM EST 6:26 PM EST
Moon 8:36 PM EST (12/30) 10:18 AM EST (12/30)
Length of Visible Light 10h 22m
Length of Day
9h 21m
Waning Gibbous, 86% of the Moon is Illuminated
Dec 30
Waning Gibbous
Jan 3
Last Quarter
Jan 10
New
Jan 17
First Quarter
Jan 25
Full

Hourly Weather History & Observations

Time (EST) Temp. Windchill Dew Point Humidity Pressure Visibility Wind Dir Wind Speed Gust Speed Precip Events Conditions
12:53 AM 36.0 °F 33.3 °F 30.9 °F 82% 30.34 in 6.0 mi East 3.5 mph - N/A   Haze
1:53 AM 36.0 °F - 30.9 °F 82% 30.35 in 6.0 mi Calm Calm - N/A   Haze
2:53 AM 35.1 °F - 30.9 °F 85% 30.36 in 5.0 mi Calm Calm - N/A   Overcast
3:53 AM 36.0 °F - 30.9 °F 82% 30.36 in 5.0 mi Calm Calm - N/A   Haze
4:53 AM 36.0 °F - 30.9 °F 82% 30.38 in 5.0 mi Calm Calm - N/A   Haze
5:53 AM 35.1 °F - 30.0 °F 82% 30.39 in 4.0 mi Calm Calm - N/A   Haze
6:53 AM 35.1 °F - 30.9 °F 85% 30.41 in 4.0 mi Calm Calm - N/A   Overcast
7:30 AM 33.8 °F 30.8 °F 30.2 °F 87% 30.41 in 2.5 mi East 3.5 mph - N/A   Overcast
7:53 AM 33.1 °F - 30.9 °F 92% 30.43 in 2.5 mi Calm Calm - N/A   Overcast
8:53 AM 36.0 °F - 32.0 °F 86% 30.45 in 3.0 mi Calm Calm - N/A   Overcast
9:53 AM 39.0 °F - 33.1 °F 79% 30.47 in 3.0 mi Calm Calm - N/A   Haze
10:53 AM 42.1 °F - 33.1 °F 70% 30.47 in 4.0 mi Calm Calm - N/A   Haze
11:53 AM 44.1 °F 40.8 °F 34.0 °F 68% 30.45 in 4.0 mi East 5.8 mph - N/A   Haze
12:53 PM 43.0 °F 41.3 °F 34.0 °F 71% 30.45 in 4.0 mi East 3.5 mph - N/A   Haze
1:53 PM 43.0 °F - 34.0 °F 71% 30.44 in 4.0 mi Calm Calm - N/A   Haze
2:53 PM 43.0 °F 41.3 °F 34.0 °F 71% 30.45 in 5.0 mi East 3.5 mph - N/A   Haze
3:53 PM 42.1 °F 40.2 °F 34.0 °F 73% 30.47 in 5.0 mi ESE 3.5 mph - N/A   Haze
4:53 PM 41.0 °F 38.0 °F 33.1 °F 73% 30.47 in 6.0 mi ESE 4.6 mph - N/A   Haze
5:53 PM 39.0 °F 35.7 °F 33.1 °F 79% 30.48 in 5.0 mi ENE 4.6 mph - N/A   Haze
6:53 PM 39.9 °F 36.7 °F 33.1 °F 77% 30.49 in 5.0 mi East 4.6 mph - N/A   Haze
7:53 PM 37.9 °F 35.5 °F 33.1 °F 83% 30.50 in 5.0 mi ENE 3.5 mph - N/A   Haze
8:53 PM 37.9 °F 33.5 °F 32.0 °F 79% 30.50 in 5.0 mi East 5.8 mph - N/A   Haze
9:53 PM 39.9 °F 35.1 °F 32.0 °F 73% 30.51 in 7.0 mi SE 6.9 mph - N/A   Overcast
10:53 PM 39.0 °F 32.8 °F 32.0 °F 76% 30.50 in 7.0 mi SSE 9.2 mph - N/A   Overcast
11:53 PM 37.9 °F 34.4 °F 32.0 °F 79% 30.50 in 7.0 mi ESE 4.6 mph - N/A   Overcast